Location: Archemont
(49.1579°N, 1.7598°E)
Time: 21:51:01
(UTC+00:00)

Altair - Pass Details

Date: 22 April 2024
Orbit: 1501 x 1682 km, 47.2° (Epoch: 19 May)

Event Time Altitude Azimuth Distance (km) Brightness Sun altitude
Rises 18:37:42 0° 234° (SW) 4,922 10.7 2.1°
Reaches altitude 10° 18:40:55 10° 231° (SW) 3,926 10.2 1.6°
Maximum altitude 18:50:45 61° 155° (SSE) 1,834 7.8 0.1°
Drops below altitude 10° 19:00:17 10° 78° (ENE) 3,819 9.1 -1.4°
Sets 19:03:22 0° 75° (ENE) 4,781 9.6 -1.9°
